WB0RXX Weather Reports


Display with metric or nautical units.
time (UTC)temp
F
wind
direction
speed
MPH
gust
MPH
rain 1hr
in
rain 24hr
in
rain mn
in
humidity
%
barometer
mb
20260504214004 54 314 6.0 9.0 0.00 0.00 0.00 40 1005.7
20260504213019 54 308 7.0 11.0 0.00 0.00 0.00 41 1005.9
20260504212004 54 323 3.0 8.0 0.00 0.00 0.00 42 1005.9
20260504211004 54 336 4.0 5.0 0.00 0.00 0.00 43 1005.8
20260504210005 55 337 10.0 14.0 0.00 0.00 0.00 42 1005.9
20260504205003 54 316 4.0 12.0 0.00 0.00 0.00 43 1005.7
20260504204004 54 343 9.0 19.0 0.00 0.00 0.00 44 1005.7
20260504203005 54 284 5.0 14.0 0.00 0.00 0.00 44 1005.5
20260504202004 55 306 8.0 16.0 0.00 0.00 0.00 43 1005.6
20260504201003 55 327 6.0 10.0 0.00 0.00 0.00 44 1005.6
20260504200004 56 271 5.0 13.0 0.00 0.00 0.00 46 1005.4
20260504195003 55 297 9.0 13.0 0.00 0.00 0.00 46 1005.2
20260504194003 56 349 8.0 12.0 0.00 0.00 0.00 46 1004.9
20260504193019 56 309 6.0 10.0 0.00 0.00 0.00 47 1004.8
20260504192005 56 315 7.0 22.0 0.00 0.00 0.00 46 1004.9
20260504191004 57 293 7.0 11.0 0.00 0.00 0.00 45 1004.8
20260504190003 57 313 9.0 17.0 0.00 0.00 0.00 45 1004.7
20260504185004 56 315 6.0 14.0 0.00 0.00 0.00 46 1004.5
20260504184004 56 314 7.0 12.0 0.00 0.00 0.00 46 1004.5
20260504183005 56 320 8.0 13.0 0.00 0.00 0.00 47 1004.4
20260504182005 56 292 7.0 17.0 0.00 0.00 0.00 47 1004.2
20260504181004 56 298 8.0 15.0 0.00 0.00 0.00 45 1004.2
20260504180004 56 309 6.0 12.0 0.00 0.00 0.00 46 1003.8
20260504175004 55 316 8.0 14.0 0.00 0.00 0.00 45 1003.7
20260504174004 55 301 5.0 10.0 0.00 0.00 0.00 47 1003.7
20260504173004 55 286 6.0 11.0 0.00 0.00 0.00 49 1003.5
20260504172004 56 321 6.0 11.0 0.00 0.00 0.00 49 1003.6
20260504171004 56 319 6.0 9.0 0.00 0.00 0.00 47 1003.7
20260504151004 56 339 3.0 5.0 0.00 0.00 0.00 54 1002.3
20260504141003 56 314 6.0 9.0 0.00 0.00 0.00 58 1001.6
20260504082003 58 243 5.0 8.0 0.00 0.00 0.00 44 997.8
20260504081003 57 211 5.0 5.0 0.00 0.00 0.00 45 998.0
20260504050006 56 214 1.0 2.0 0.00 0.00 0.00 41 1002.0
20260504045004 57 240 0.0 2.0 0.00 0.00 0.00 41 1002.1
20260504044004 57 221 1.0 2.0 0.00 0.00 0.00 40 1002.2
20260504043003 57 217 1.0 3.0 0.00 0.00 0.00 41 1002.4
20260504042003 57 205 0.0 2.0 0.00 0.00 0.00 41 1002.6
20260504041004 57 224 1.0 4.0 0.00 0.00 0.00 41 1002.8
20260504040005 58 211 1.0 2.0 0.00 0.00 0.00 40 1002.9
20260504035003 58 246 1.0 4.0 0.00 0.00 0.00 40 1003.1
20260504034004 58 223 2.0 4.0 0.00 0.00 0.00 41 1003.4
20260504033004 58 267 1.0 2.0 0.00 0.00 0.00 42 1003.6
20260504032004 58 275 0.0 0.0 0.00 0.00 0.00 43 1003.8
20260504031005 58 276 0.0 2.0 0.00 0.00 0.00 42 1004.0
20260504030004 59 276 0.0 0.0 0.00 0.00 0.00 41 1004.0
20260504025005 59 276 0.0 0.0 0.00 0.00 0.00 40 1004.2
20260504024004 60 276 0.0 0.0 0.00 0.00 0.00 36 1004.3
20260504023004 61 276 0.0 0.0 0.00 0.00 0.00 36 1004.3
20260504022003 63 276 0.0 0.0 0.00 0.00 0.00 34 1004.4
20260504021004 64 276 0.0 0.0 0.00 0.00 0.00 33 1004.5
20260504020004 65 276 0.0 0.0 0.00 0.00 0.00 31 1004.5
20260504015003 66 276 0.0 0.0 0.00 0.00 0.00 30 1004.6
20260504014003 66 276 0.0 1.0 0.00 0.00 0.00 29 1004.8
20260504013003 67 315 0.0 0.0 0.00 0.00 0.00 29 1004.9
20260504012003 68 279 1.0 5.0 0.00 0.00 0.00 28 1004.9
20260504011003 68 281 1.0 3.0 0.00 0.00 0.00 28 1004.9
20260504010004 69 250 0.0 0.0 0.00 0.00 0.00 28 1005.0
20260504005004 69 292 0.0 1.0 0.00 0.00 0.00 27 1005.1
20260504004004 70 300 1.0 3.0 0.00 0.00 0.00 27 1005.2
20260504003004 70 253 2.0 6.0 0.00 0.00 0.00 27 1005.4
20260504002004 70 267 3.0 2.0 0.00 0.00 0.00 26 1005.2
20260504001003 71 250 0.0 0.0 0.00 0.00 0.00 25 1005.3
20260504000004 71 294 2.0 9.0 0.00 0.00 0.00 25 1005.4
20260503235003 71 263 1.0 0.0 0.00 0.00 0.00 26 1005.4
20260503234004 71 255 2.0 3.0 0.00 0.00 0.00 26 1005.5
20260503233003 71 223 3.0 7.0 0.00 0.00 0.00 26 1005.7
20260503232003 72 237 1.0 4.0 0.00 0.00 0.00 25 1005.7
20260503231003 72 298 2.0 10.0 0.00 0.00 0.00 27 1005.9
20260503230006 73 351 2.0 3.0 0.00 0.00 0.00 26 1006.0
20260503225005 73 280 1.0 3.0 0.00 0.00 0.00 24 1006.3
20260503224005 73 251 3.0 7.0 0.00 0.00 0.00 26 1006.2
20260503223018 73 234 0.0 2.0 0.00 0.00 0.00 27 1006.3
20260503222004 73 288 1.0 0.0 0.00 0.00 0.00 28 1006.4
20260503221003 72 338 1.0 3.0 0.00 0.00 0.00 27 1006.6
20260503220003 73 355 1.0 2.0 0.00 0.00 0.00 28 1006.7
20260503215019 72 316 1.0 4.0 0.00 0.00 0.00 27 1006.7